FW6720 Weather Reports


Display with metric or nautical units.
time (UTC)temp
F
wind
direction
speed
MPH
gust
MPH
rain 1hr
in
rain 24hr
in
rain mn
in
humidity
%
barometer
mb
20260505051148 54 23 0.0 0.0 0.00 0.00 0.00 81 1014.9
20260505050645 55 23 0.0 0.0 0.00 0.00 0.00 80 1014.6
20260505050143 55 23 0.0 0.0 0.00 0.00 0.00 80 1014.4
20260505041613 57 23 0.0 0.0 0.00 0.00 0.00 77 1014.3
20260505041110 57 23 0.0 0.0 0.00 0.00 0.00 76 1014.1
20260505040607 57 23 0.0 0.0 0.00 0.00 0.00 77 1014.3
20260505040104 57 23 0.0 0.0 0.00 0.00 0.00 77 1014.2
20260505035601 57 23 0.0 0.0 0.00 0.00 0.00 77 1014.1
20260505035057 58 23 0.0 0.0 0.00 0.00 0.00 77 1014.1
20260505034554 58 23 0.0 0.0 0.00 0.00 0.00 76 1014.0
20260505034050 58 23 0.0 0.0 0.00 0.00 0.00 76 1014.2
20260505033547 59 23 0.0 0.0 0.00 0.00 0.00 75 1013.9
20260505033046 59 23 0.0 0.0 0.00 0.00 0.00 75 1013.8
20260505032544 60 23 0.0 0.0 0.00 0.00 0.00 73 1013.7
20260505032040 60 22 0.0 0.0 0.00 0.00 0.00 73 1013.8
20260505031537 60 22 0.0 0.0 0.00 0.00 0.00 73 1013.7
20260505031033 61 21 0.0 0.0 0.00 0.00 0.00 72 1013.5
20260505030530 61 21 0.0 0.0 0.00 0.00 0.00 72 1013.4
20260505030026 62 21 0.0 0.0 0.00 0.00 0.00 71 1013.4
20260505025522 62 21 0.0 0.0 0.00 0.00 0.00 71 1013.4
20260505025022 62 21 0.0 0.0 0.00 0.00 0.00 71 1013.3
20260505024518 63 21 0.0 0.0 0.00 0.00 0.00 69 1013.3
20260505024015 63 21 0.0 0.0 0.00 0.00 0.00 68 1013.1
20260505023512 64 21 0.0 0.0 0.00 0.00 0.00 67 1013.1
20260505023010 64 21 0.0 0.0 0.00 0.00 0.00 67 1013.0
20260505022507 65 21 0.0 0.0 0.00 0.00 0.00 65 1013.0
20260505022004 66 21 0.0 0.0 0.00 0.00 0.00 65 1013.1
20260505021500 66 21 0.0 0.0 0.00 0.00 0.00 65 1013.0
20260505020956 66 21 0.0 0.0 0.00 0.00 0.00 65 1012.8
20260505020452 66 21 0.0 0.0 0.00 0.00 0.00 63 1012.8
20260505015948 67 21 0.0 0.0 0.00 0.00 0.00 62 1013.0
20260505015446 68 21 0.0 0.0 0.00 0.00 0.00 62 1012.9
20260505014943 68 21 0.0 0.0 0.00 0.00 0.00 62 1012.9
20260505014440 68 21 0.0 0.0 0.00 0.00 0.00 61 1012.9
20260505013937 69 21 0.0 0.0 0.00 0.00 0.00 61 1013.0
20260505013434 69 21 0.0 1.0 0.00 0.00 0.00 60 1013.1
20260505012931 70 21 0.0 0.0 0.00 0.00 0.00 60 1013.0
20260505012430 70 21 0.0 0.0 0.00 0.00 0.00 60 1012.7
20260505011926 71 20 1.0 3.0 0.00 0.00 0.00 59 1012.9
20260505011422 71 21 0.0 0.0 0.00 0.00 0.00 58 1012.9
20260505010919 71 21 0.0 1.0 0.00 0.00 0.00 58 1012.8
20260505010414 71 21 0.0 0.0 0.00 0.00 0.00 58 1012.9
20260505005911 71 21 0.0 1.0 0.00 0.00 0.00 57 1012.4
20260505005408 72 21 0.0 0.0 0.00 0.00 0.00 57 1012.9
20260505004905 72 21 0.0 0.0 0.00 0.00 0.00 57 1012.7
20260505004401 72 21 0.0 0.0 0.00 0.00 0.00 57 1012.9
20260505003858 72 21 0.0 0.0 0.00 0.00 0.00 56 1012.8
20260505003356 73 21 0.0 0.0 0.00 0.00 0.00 56 1012.9
20260505002852 73 22 0.0 0.0 0.00 0.00 0.00 56 1012.7
20260505002349 73 21 0.0 0.0 0.00 0.00 0.00 55 1012.6
20260505001847 74 20 1.0 1.0 0.00 0.00 0.00 55 1012.8
20260505001344 74 20 0.0 0.0 0.00 0.00 0.00 56 1012.4
20260505000841 74 21 0.0 0.0 0.00 0.00 0.00 54 1012.4
20260505000339 75 21 1.0 2.0 0.00 0.00 0.00 54 1012.6
20260504235835 75 22 0.0 0.0 0.00 0.00 0.00 53 1012.7
20260504235332 76 26 0.0 0.0 0.00 0.00 0.00 52 1012.6
20260504234829 77 24 0.0 1.0 0.00 0.00 0.00 54 1012.7
20260504234327 77 29 0.0 0.0 0.00 0.00 0.00 52 1012.6
20260504233823 77 28 0.0 0.0 0.00 0.00 0.00 57 1012.4
20260504233319 78 27 0.0 0.0 0.00 0.00 0.00 55 1012.4
20260504232815 77 27 0.0 0.0 0.00 0.00 0.00 54 1012.6
20260504232313 77 25 0.0 0.0 0.00 0.00 0.00 54 1012.4
20260504231809 77 26 0.0 0.0 0.00 0.00 0.00 54 1012.3
20260504231306 77 27 0.0 0.0 0.00 0.00 0.00 54 1012.7
20260504230802 76 29 0.0 0.0 0.00 0.00 0.00 56 1012.7
20260504230300 75 28 0.0 1.0 0.00 0.00 0.00 55 1012.8
20260504225759 76 29 0.0 0.0 0.00 0.00 0.00 55 1012.8
20260504225255 75 29 0.0 0.0 0.00 0.00 0.00 55 1013.0
20260504224752 74 24 0.0 0.0 0.00 0.00 0.00 58 1013.0
20260504224249 75 27 0.0 0.0 0.00 0.00 0.00 58 1013.1
20260504223745 75 21 0.0 0.0 0.00 0.00 0.00 56 1012.9
20260504223241 75 22 0.0 1.0 0.00 0.00 0.00 56 1013.1
20260504222738 76 28 0.0 1.0 0.00 0.00 0.00 54 1012.9
20260504222235 76 30 0.0 0.0 0.00 0.00 0.00 55 1013.0
20260504221733 76 57 0.0 0.0 0.00 0.00 0.00 54 1013.1
20260504221229 77 31 0.0 0.0 0.00 0.00 0.00 53 1013.2
20260504220726 76 29 0.0 0.0 0.00 0.00 0.00 54 1013.2
20260504220223 75 27 0.0 0.0 0.00 0.00 0.00 58 1013.5
20260504215720 76 26 0.0 0.0 0.00 0.00 0.00 54 1013.3
20260504215217 75 26 0.0 0.0 0.00 0.00 0.00 55 1013.4
20260504214713 75 27 0.0 0.0 0.00 0.00 0.00 55 1013.5
20260504214210 76 24 0.0 1.0 0.00 0.00 0.00 54 1013.4
20260504213706 75 25 0.0 0.0 0.00 0.00 0.00 55 1013.2
20260504213203 75 27 0.0 1.0 0.00 0.00 0.00 58 1013.7
20260504212700 75 24 0.0 0.0 0.00 0.00 0.00 55 1013.5
20260504212156 75 24 0.0 0.0 0.00 0.00 0.00 56 1013.5
20260504211654 75 24 0.0 1.0 0.00 0.00 0.00 58 1013.7
20260504211150 74 23 0.0 0.0 0.00 0.00 0.00 57 1013.9
20260504210648 75 23 0.0 1.0 0.00 0.00 0.00 54 1013.9
20260504210144 73 70 0.0 0.0 0.00 0.00 0.00 56 1014.1
20260504205642 74 24 0.0 0.0 0.00 0.00 0.00 58 1014.1
20260504205138 73 22 0.0 0.0 0.00 0.00 0.00 58 1014.1
20260504204637 73 23 0.0 0.0 0.00 0.00 0.00 57 1014.2
20260504204136 73 23 0.0 0.0 0.00 0.00 0.00 58 1014.1
20260504203634 72 22 0.0 0.0 0.00 0.00 0.00 57 1014.3
20260504203131 72 23 0.0 0.0 0.00 0.00 0.00 59 1014.4
20260504202626 72 23 0.0 0.0 0.00 0.00 0.00 59 1014.4
20260504202123 71 23 0.0 0.0 0.00 0.00 0.00 61 1014.4
20260504201620 71 23 0.0 0.0 0.00 0.00 0.00 62 1014.5
20260504201118 71 20 0.0 0.0 0.00 0.00 0.00 61 1014.6
20260504200615 71 121 0.0 0.0 0.00 0.00 0.00 61 1014.6
20260504200111 71 121 0.0 0.0 0.00 0.00 0.00 59 1014.5
20260504195607 71 17 0.0 0.0 0.00 0.00 0.00 60 1014.7
20260504195103 71 31 0.0 0.0 0.00 0.00 0.00 59 1014.6
20260504194600 71 150 0.0 0.0 0.00 0.00 0.00 60 1014.4
20260504194055 71 63 1.0 2.0 0.00 0.00 0.00 60 1014.9
20260504193552 70 14 0.0 0.0 0.00 0.00 0.00 60 1014.6
20260504193051 69 31 0.0 0.0 0.00 0.00 0.00 63 1014.6
20260504192549 69 151 0.0 0.0 0.00 0.00 0.00 63 1014.8
20260504192047 68 152 0.0 0.0 0.00 0.00 0.00 62 1014.8
20260504191544 68 66 0.0 0.0 0.00 0.00 0.00 63 1014.9
20260504191040 68 60 0.0 0.0 0.00 0.00 0.00 62 1014.7
20260504190537 68 57 0.0 0.0 0.00 0.00 0.00 62 1015.1
20260504190033 68 49 0.0 0.0 0.00 0.00 0.00 63 1015.0
20260504185530 68 23 0.0 0.0 0.00 0.00 0.00 63 1014.8
20260504185026 68 142 0.0 0.0 0.00 0.00 0.00 62 1014.9
20260504184522 68 18 0.0 0.0 0.00 0.00 0.00 64 1014.6
20260504184018 67 60 0.0 0.0 0.00 0.00 0.00 64 1014.9
20260504183515 67 101 0.0 0.0 0.00 0.00 0.00 65 1014.9
20260504183013 66 75 0.0 0.0 0.00 0.00 0.00 64 1014.9
20260504182509 67 75 0.0 0.0 0.00 0.00 0.00 64 1014.8
20260504182007 67 72 0.0 0.0 0.00 0.00 0.00 65 1015.1
20260504181504 66 25 0.0 0.0 0.00 0.00 0.00 66 1015.0
20260504181003 67 26 0.0 1.0 0.00 0.00 0.00 64 1014.9
20260504180501 66 26 0.0 0.0 0.00 0.00 0.00 67 1014.7
20260504175959 66 25 0.0 0.0 0.00 0.00 0.00 66 1015.0
20260504175456 65 26 0.0 0.0 0.00 0.00 0.00 68 1014.8
20260504174953 65 33 0.0 0.0 0.00 0.00 0.00 66 1015.1
20260504174450 65 54 0.0 0.0 0.00 0.00 0.00 66 1014.8
20260504173948 65 51 0.0 0.0 0.00 0.00 0.00 68 1015.2
20260504173444 65 47 0.0 0.0 0.00 0.00 0.00 66 1014.7
20260504172942 64 49 0.0 0.0 0.00 0.00 0.00 68 1014.9
20260504172437 64 31 0.0 0.0 0.00 0.00 0.00 68 1015.0
20260504171934 65 46 0.0 0.0 0.00 0.00 0.00 67 1014.8
20260504171431 65 46 0.0 0.0 0.00 0.00 0.00 67 1014.8
20260504170928 64 46 0.0 0.0 0.00 0.00 0.00 68 1014.8
20260504170424 64 46 0.0 0.0 0.00 0.00 0.00 67 1014.6
20260504160343 61 38 0.0 0.0 0.00 0.00 0.00 70 1015.0
20260504150808 55 32 0.0 0.0 0.00 0.00 0.00 82 1014.6
20260504150305 55 32 0.0 0.0 0.00 0.00 0.00 82 1014.6
20260504141235 52 32 0.0 0.0 0.00 0.00 0.00 86 1014.3
20260504140731 52 32 0.0 0.0 0.00 0.00 0.00 86 1014.5
20260504140227 52 32 0.0 0.0 0.00 0.00 0.00 86 1014.5
20260504130656 53 33 0.0 0.0 0.00 0.00 0.00 84 1013.5
20260504130152 53 34 0.0 0.0 0.00 0.00 0.00 83 1013.5
20260504120116 54 34 0.0 0.0 0.00 0.00 0.00 82 1012.7
20260504110543 55 34 0.0 0.0 0.00 0.00 0.00 82 1012.0
20260504100505 54 34 0.0 0.0 0.00 0.00 0.00 84 1011.8
20260504081858 53 34 0.0 0.0 0.00 0.00 0.00 85 1011.4
20260504081355 53 34 0.0 0.0 0.00 0.00 0.00 85 1011.6
20260504080850 54 34 0.0 0.0 0.00 0.00 0.00 85 1011.6
20260504080348 54 34 0.0 0.0 0.00 0.00 0.00 85 1011.8
20260504070315 55 34 0.0 0.0 0.00 0.00 0.00 83 1011.5
20260504060236 57 34 0.0 0.0 0.00 0.00 0.00 80 1011.3